Location: Cheny Ridge Estates
(40.6074°N, 111.8785°W)
Time: 17:19:18
(UTC+00:00)

ISS - Visible Passes

Search period start: 25 February 2021 00:00
Search period end: 07 March 2021 00:00
Orbit: 417 x 422 km, 51.6° (Epoch: 26 February)

Date Brightness Start Highest point End Pass type
(mag) Time Alt. Az. Time Alt. Az. Time Alt. Az.
25 Feb -0.7 11:35:05 15° NE 11:35:05 15° NE 11:35:46 10° NE visible
25 Feb -2.0 13:08:03 15° NW 13:09:33 20° NNW 13:12:08 10° NNE visible
26 Feb -2.1 12:22:32 24° N 12:22:32 24° N 12:24:50 10° NE visible
27 Feb -0.7 11:36:58 14° NE 11:36:58 14° NE 11:37:31 10° NE visible
27 Feb -1.4 13:10:01 10° NW 13:11:54 14° N 13:13:47 10° NNE visible
28 Feb -1.6 12:24:18 16° NNW 12:24:18 16° NNW 12:26:24 10° NNE visible
01 Mar -0.7 11:38:38 12° NNE 11:38:38 12° NNE 11:39:04 10° NNE visible
01 Mar -1.2 13:12:43 10° NNW 13:14:18 13° N 13:15:52 10° NNE visible
02 Mar -1.3 12:25:54 12° NNW 12:26:32 13° N 12:28:10 10° NNE visible
03 Mar -0.7 11:40:11 11° NNE 11:40:11 11° NNE 11:40:38 10° NNE visible
03 Mar -1.2 13:14:38 10° NNW 13:16:38 15° N 13:18:38 10° NE visible
04 Mar -1.2 12:27:25 11° NNW 12:28:51 13° N 12:30:34 10° NE visible
05 Mar -0.8 11:41:43 12° NNE 11:41:43 12° NNE 11:42:38 10° NNE visible
05 Mar -1.6 13:16:08 10° NNW 13:18:49 22° NNE 13:21:31 10° ENE visible
06 Mar -1.3 12:28:59 11° NNW 12:31:06 17° NNE 12:33:26 10° ENE visible
